,,PressureMeas_1m,,PRMeasQMR101_1,,RHStat155_1m_1,,SRMeasQMS101R_1m,,TAStat155_1m_1,,GenWind_1,,GenWind_1,
2018-09-03, 00:00:06,VALID,920.245,VALID,0.0,VALID,96.237,VALID,0.032,VALID,19.499,VALID,86.0,VALID,0.0,
2018-09-03, 00:01:06,VALID,920.255,VALID,0.0,VALID,96.165,VALID,0.03,VALID,19.453,VALID,33.0,VALID,0.0,
2018-09-03, 00:02:06,VALID,920.282,VALID,0.0,VALID,96.376,VALID,0.02,VALID,19.432,VALID,22.0,VALID,0.0,
2018-09-03, 00:03:06,VALID,920.301,VALID,0.0,VALID,96.303,VALID,0.029,VALID,19.438,VALID,22.0,VALID,0.0,
2018-09-03, 00:04:06,VALID,920.325,VALID,0.0,VALID,96.106,VALID,0.023,VALID,19.426,VALID,15.0,VALID,0.0,
2018-09-03, 00:05:06,VALID,920.316,VALID,0.0,VALID,96.074,VALID,0.01,VALID,19.409,VALID,20.0,VALID,0.0,
2018-09-03, 00:06:06,VALID,920.301,VALID,0.0,VALID,96.038,VALID,0.028,VALID,19.386,VALID,24.0,VALID,0.0,
2018-09-03, 00:07:06,VALID,920.292,VALID,0.0,VALID,96.062,VALID,0.02,VALID,19.354,VALID,25.0,VALID,0.0,
2018-09-03, 00:08:06,VALID,920.286,VALID,0.0,VALID,96.15,VALID,0.02,VALID,19.332,VALID,22.0,VALID,0.0,
2018-09-03, 00:09:06,VALID,920.256,VALID,0.0,VALID,96.355,VALID,0.032,VALID,19.326,VALID,23.0,VALID,0.0,
2018-09-03, 00:10:06,VALID,920.265,VALID,0.0,VALID,96.408,VALID,0.012,VALID,19.316,VALID,6.0,VALID,0.0,
2018-09-03, 00:11:06,VALID,920.237,VALID,0.0,VALID,96.57,VALID,0.029,VALID,19.322,VALID,343.0,VALID,0.0,
2018-09-03, 00:12:06,VALID,920.218,VALID,0.0,VALID,96.657,VALID,0.029,VALID,19.358,VALID,347.0,VALID,0.0,
2018-09-03, 00:13:06,VALID,920.212,VALID,0.0,VALID,96.594,VALID,0.024,VALID,19.371,VALID,341.0,VALID,0.0,
2018-09-03, 00:14:06,VALID,920.176,VALID,0.0,VALID,96.584,VALID,0.013,VALID,19.376,VALID,341.0,VALID,0.0,
2018-09-03, 00:15:06,VALID,920.164,VALID,0.0,VALID,96.644,VALID,-0.007,VALID,19.388,VALID,343.0,VALID,0.0,
2018-09-03, 00:16:06,VALID,920.153,VALID,0.0,VALID,96.663,VALID,0.013,VALID,19.408,VALID,343.0,VALID,0.0,
2018-09-03, 00:17:06,VALID,920.128,VALID,0.0,VALID,96.573,VALID,0.023,VALID,19.42,VALID,343.0,VALID,0.0,
2018-09-03, 00:18:06,VALID,920.12,VALID,0.0,VALID,96.529,VALID,0.025,VALID,19.423,VALID,343.0,VALID,0.0,
2018-09-03, 00:19:06,VALID,920.101,VALID,0.0,VALID,96.535,VALID,0.019,VALID,19.441,VALID,343.0,VALID,0.0,
2018-09-03, 00:20:07,VALID,920.114,VALID,0.0,VALID,96.388,VALID,0.036,VALID,19.43,VALID,343.0,VALID,0.0,
2018-09-03, 00:21:07,VALID,920.091,VALID,0.0,VALID,96.258,VALID,0.031,VALID,19.398,VALID,343.0,VALID,0.0,
2018-09-03, 00:22:07,VALID,920.084,VALID,0.0,VALID,96.419,VALID,0.004,VALID,19.403,VALID,343.0,VALID,0.0,
2018-09-03, 00:23:07,VALID,920.095,VALID,0.0,VALID,96.454,VALID,0.029,VALID,19.432,VALID,343.0,VALID,0.0,
2018-09-03, 00:24:07,VALID,920.08,VALID,0.0,VALID,96.304,VALID,0.01,VALID,19.464,VALID,336.0,VALID,0.0,
2018-09-03, 00:25:07,VALID,920.073,VALID,0.0,VALID,96.22,VALID,-0.013,VALID,19.486,VALID,307.0,VALID,0.0,
2018-09-03, 00:26:07,VALID,920.066,VALID,0.0,VALID,96.172,VALID,-0.004,VALID,19.498,VALID,307.0,VALID,0.0,
2018-09-03, 00:27:07,VALID,920.028,VALID,0.0,VALID,96.188,VALID,0.008,VALID,19.52,VALID,307.0,VALID,0.0,
2018-09-03, 00:28:07,VALID,919.982,VALID,0.0,VALID,96.223,VALID,0.007,VALID,19.545,VALID,307.0,VALID,0.0,
2018-09-03, 00:29:07,VALID,919.972,VALID,0.0,VALID,95.981,VALID,0.013,VALID,19.532,VALID,311.0,VALID,0.0,
2018-09-03, 00:30:07,VALID,919.942,VALID,0.0,VALID,96.004,VALID,0.015,VALID,19.531,VALID,320.0,VALID,0.0,
2018-09-03, 00:31:07,VALID,919.953,VALID,0.0,VALID,95.943,VALID,0.02,VALID,19.533,VALID,323.0,VALID,0.0,
2018-09-03, 00:32:07,VALID,919.939,VALID,0.0,VALID,95.804,VALID,0.017,VALID,19.53,VALID,287.0,VALID,0.0,
2018-09-03, 00:33:07,VALID,919.946,VALID,0.0,VALID,95.614,VALID,0.015,VALID,19.523,VALID,286.0,VALID,0.0,
2018-09-03, 00:34:07,VALID,919.973,VALID,0.0,VALID,95.733,VALID,0.023,VALID,19.537,VALID,286.0,VALID,0.0,
2018-09-03, 00:35:07,VALID,919.983,VALID,0.0,VALID,96.089,VALID,0.021,VALID,19.553,VALID,286.0,VALID,0.0,
2018-09-03, 00:36:07,VALID,919.956,VALID,0.0,VALID,96.015,VALID,0.001,VALID,19.538,VALID,286.0,VALID,0.0,
2018-09-03, 00:37:07,VALID,919.951,VALID,0.0,VALID,96.036,VALID,-0.009,VALID,19.552,VALID,286.0,VALID,0.0,
2018-09-03, 00:38:07,VALID,919.927,VALID,0.0,VALID,95.835,VALID,-0.008,VALID,19.527,VALID,299.0,VALID,0.0,
2018-09-03, 00:39:07,VALID,919.889,VALID,0.0,VALID,95.915,VALID,0.003,VALID,19.52,VALID,329.0,VALID,0.0,
2018-09-03, 00:40:07,VALID,919.878,VALID,0.0,VALID,95.834,VALID,-0.016,VALID,19.497,VALID,331.0,VALID,0.0,
2018-09-03, 00:41:07,VALID,919.873,VALID,0.0,VALID,95.766,VALID,-0.015,VALID,19.468,VALID,8.0,VALID,0.0,
2018-09-03, 00:42:07,VALID,919.845,VALID,0.0,VALID,95.498,VALID,-0.003,VALID,19.417,VALID,17.0,VALID,0.0,
2018-09-03, 00:43:07,VALID,919.854,VALID,0.0,VALID,95.5,VALID,-0.002,VALID,19.359,VALID,26.0,VALID,0.0,
2018-09-03, 00:44:07,VALID,919.876,VALID,0.0,VALID,95.587,VALID,-0.005,VALID,19.322,VALID,31.0,VALID,0.0,
2018-09-03, 00:45:07,VALID,919.903,VALID,0.0,VALID,95.853,VALID,0.005,VALID,19.329,VALID,31.0,VALID,0.0,
2018-09-03, 00:46:07,VALID,919.892,VALID,0.0,VALID,95.954,VALID,0.009,VALID,19.354,VALID,40.0,VALID,0.0,
2018-09-03, 00:47:07,VALID,919.876,VALID,0.0,VALID,96.031,VALID,0.012,VALID,19.356,INVALID,360.0,VALID,0.0,
2018-09-03, 00:48:07,VALID,919.86,VALID,0.0,VALID,96.239,VALID,0.006,VALID,19.356,INVALID,360.0,VALID,0.0,
2018-09-03, 00:49:07,VALID,919.883,VALID,0.0,VALID,96.397,VALID,-0.005,VALID,19.357,INVALID,360.0,VALID,0.0,
2018-09-03, 00:50:07,VALID,919.86,VALID,0.0,VALID,96.427,VALID,-0.004,VALID,19.353,INVALID,360.0,VALID,0.0,
2018-09-03, 00:51:07,VALID,919.85,VALID,0.0,VALID,96.094,VALID,0.01,VALID,19.294,INVALID,360.0,VALID,0.0,
2018-09-03, 00:52:07,VALID,919.871,VALID,0.0,VALID,95.636,VALID,-0.012,VALID,19.215,VALID,149.0,VALID,0.0,
2018-09-03, 00:53:07,VALID,919.838,VALID,0.0,VALID,96.031,VALID,0.004,VALID,19.188,VALID,141.0,VALID,0.0,
2018-09-03, 00:54:07,VALID,919.851,VALID,0.0,VALID,96.412,VALID,0.013,VALID,19.203,INVALID,360.0,VALID,0.0,
2018-09-03, 00:55:07,VALID,919.879,VALID,0.0,VALID,96.565,VALID,0.008,VALID,19.22,INVALID,360.0,VALID,0.0,
2018-09-03, 00:56:07,VALID,919.875,VALID,0.0,VALID,96.577,VALID,0.021,VALID,19.239,INVALID,360.0,VALID,0.0,
2018-09-03, 00:57:07,VALID,919.866,VALID,0.0,VALID,96.428,VALID,0.003,VALID,19.227,VALID,131.0,VALID,0.0,
2018-09-03, 00:58:07,VALID,919.851,VALID,0.0,VALID,96.322,VALID,-0.005,VALID,19.213,VALID,152.0,VALID,0.0,
2018-09-03, 00:59:07,VALID,919.858,VALID,0.0,VALID,96.414,VALID,0.004,VALID,19.23,VALID,138.0,VALID,0.0,
2018-09-03, 01:00:07,VALID,919.843,VALID,0.0,VALID,96.583,VALID,-0.013,VALID,19.246,VALID,149.0,VALID,0.0,
2018-09-03, 01:01:07,VALID,919.825,VALID,0.0,VALID,96.599,VALID,-0.006,VALID,19.264,INVALID,360.0,VALID,0.0,
2018-09-03, 01:02:07,VALID,919.815,VALID,0.0,VALID,96.538,VALID,-0.01,VALID,19.284,VALID,147.0,VALID,0.0,
2018-09-03, 01:03:07,VALID,919.808,VALID,0.0,VALID,96.453,VALID,0.006,VALID,19.318,VALID,141.0,VALID,0.0,
2018-09-03, 01:04:07,VALID,919.754,VALID,0.0,VALID,96.412,VALID,-0.004,VALID,19.363,VALID,139.0,VALID,0.0,
2018-09-03, 01:05:07,VALID,919.763,VALID,0.0,VALID,96.315,VALID,-0.008,VALID,19.391,VALID,145.0,VALID,0.0,
2018-09-03, 01:06:07,VALID,919.74,VALID,0.0,VALID,96.199,VALID,-0.002,VALID,19.416,VALID,142.0,VALID,0.0,
2018-09-03, 01:07:07,VALID,919.721,VALID,0.0,VALID,96.07,VALID,-0.001,VALID,19.451,VALID,115.0,VALID,0.0,
2018-09-03, 01:08:07,VALID,919.713,VALID,0.0,VALID,96.076,VALID,0.008,VALID,19.469,VALID,105.0,VALID,0.0,
2018-09-03, 01:09:07,VALID,919.695,VALID,0.0,VALID,96.057,VALID,-0.003,VALID,19.46,VALID,105.0,VALID,0.0,
2018-09-03, 01:10:07,VALID,919.679,VALID,0.0,VALID,96.071,VALID,0.01,VALID,19.442,VALID,105.0,VALID,0.0,
2018-09-03, 01:11:07,VALID,919.644,VALID,0.0,VALID,96.103,VALID,0.01,VALID,19.432,VALID,95.0,VALID,0.0,
2018-09-03, 01:12:07,VALID,919.611,VALID,0.0,VALID,96.17,VALID,0.018,VALID,19.438,VALID,72.0,VALID,0.0,
2018-09-03, 01:13:07,VALID,919.598,VALID,0.0,VALID,96.049,VALID,0.009,VALID,19.408,VALID,69.0,VALID,0.0,
2018-09-03, 01:14:07,VALID,919.584,VALID,0.0,VALID,96.128,VALID,0.008,VALID,19.361,VALID,69.0,VALID,0.0,
2018-09-03, 01:15:07,VALID,919.561,VALID,0.0,VALID,96.496,VALID,0.009,VALID,19.322,VALID,69.0,VALID,0.0,
2018-09-03, 01:16:07,VALID,919.537,VALID,0.0,VALID,96.766,VALID,0.02,VALID,19.278,VALID,73.0,VALID,0.0,
2018-09-03, 01:17:07,VALID,919.537,VALID,0.0,VALID,96.938,VALID,0.019,VALID,19.228,VALID,83.0,VALID,0.0,
2018-09-03, 01:18:07,VALID,919.498,VALID,0.0,VALID,97.17,VALID,0.019,VALID,19.208,VALID,90.0,VALID,0.0,
2018-09-03, 01:19:07,VALID,919.471,VALID,0.0,VALID,97.26,VALID,0.017,VALID,19.184,VALID,92.0,VALID,0.0,
2018-09-03, 01:20:07,VALID,919.453,VALID,0.0,VALID,97.49,VALID,0.014,VALID,19.168,VALID,98.0,VALID,0.0,
2018-09-03, 01:21:07,VALID,919.421,VALID,0.0,VALID,97.576,VALID,0.016,VALID,19.13,VALID,97.0,VALID,0.0,
2018-09-03, 01:22:07,VALID,919.379,VALID,0.0,VALID,97.765,VALID,0.004,VALID,19.125,VALID,103.0,VALID,0.0,
2018-09-03, 01:23:07,VALID,919.369,VALID,0.0,VALID,97.862,VALID,0.001,VALID,19.104,VALID,102.0,VALID,0.0,
2018-09-03, 01:24:07,VALID,919.356,VALID,0.0,VALID,97.913,VALID,-0.017,VALID,19.073,VALID,101.0,VALID,0.0,
2018-09-03, 01:25:07,VALID,919.325,VALID,0.0,VALID,97.987,VALID,-0.027,VALID,19.045,VALID,101.0,VALID,0.0,
2018-09-03, 01:26:07,VALID,919.319,VALID,0.0,VALID,97.991,VALID,-0.022,VALID,19.015,VALID,107.0,VALID,0.0,
2018-09-03, 01:27:07,VALID,919.31,VALID,0.0,VALID,98.079,VALID,-0.016,VALID,19.007,VALID,115.0,VALID,0.0,
2018-09-03, 01:28:07,VALID,919.322,VALID,0.0,VALID,98.175,VALID,-0.004,VALID,19.013,VALID,119.0,VALID,0.0,
2018-09-03, 01:29:07,VALID,919.31,VALID,0.0,VALID,98.284,VALID,-0.015,VALID,19.028,VALID,126.0,VALID,0.0,
2018-09-03, 01:30:07,VALID,919.304,VALID,0.0,VALID,98.374,VALID,-0.011,VALID,19.03,VALID,125.0,VALID,0.0,
2018-09-03, 01:31:07,VALID,919.305,VALID,0.0,VALID,98.426,VALID,-0.009,VALID,19.028,VALID,119.0,VALID,1.047,
2018-09-03, 01:32:07,VALID,919.291,VALID,0.0,VALID,98.49,VALID,-0.004,VALID,19.051,VALID,112.0,VALID,1.52,
2018-09-03, 01:33:07,VALID,919.27,VALID,0.0,VALID,98.578,VALID,-0.008,VALID,19.066,VALID,109.0,VALID,1.422,
2018-09-03, 01:34:07,VALID,919.27,VALID,0.0,VALID,98.583,VALID,-0.016,VALID,19.061,VALID,108.0,VALID,0.936,
2018-09-03, 01:35:07,VALID,919.242,VALID,0.0,VALID,98.617,VALID,-0.001,VALID,19.063,VALID,113.0,VALID,1.448,
2018-09-03, 01:36:07,VALID,919.22,VALID,0.0,VALID,98.669,VALID,0.002,VALID,19.097,VALID,117.0,VALID,1.597,
2018-09-03, 01:37:07,VALID,919.198,VALID,0.0,VALID,98.723,VALID,-0.001,VALID,19.141,VALID,117.0,VALID,1.558,
2018-09-03, 01:38:07,VALID,919.183,VALID,0.0,VALID,98.728,VALID,0.003,VALID,19.16,VALID,123.0,VALID,1.201,
2018-09-03, 01:39:07,VALID,919.152,VALID,0.0,VALID,98.773,VALID,-0.004,VALID,19.177,VALID,121.0,VALID,1.236,
2018-09-03, 01:40:07,VALID,919.141,VALID,0.0,VALID,98.788,VALID,0.002,VALID,19.182,VALID,122.0,VALID,1.373,
2018-09-03, 01:41:07,VALID,919.111,VALID,0.0,VALID,98.832,VALID,0.011,VALID,19.214,VALID,123.0,VALID,1.558,
2018-09-03, 01:42:07,VALID,919.095,VALID,0.0,VALID,98.815,VALID,-0.005,VALID,19.206,VALID,124.0,VALID,1.336,
2018-09-03, 01:43:07,VALID,919.079,VALID,0.0,VALID,98.829,VALID,-0.011,VALID,19.217,VALID,125.0,VALID,1.293,
2018-09-03, 01:44:07,VALID,919.062,VALID,0.0,VALID,98.846,VALID,-0.003,VALID,19.221,VALID,123.0,VALID,1.33,
2018-09-03, 01:45:07,VALID,919.054,VALID,0.0,VALID,98.837,VALID,-0.005,VALID,19.21,VALID,118.0,VALID,1.429,
2018-09-03, 01:46:07,VALID,919.046,VALID,0.0,VALID,98.844,VALID,-0.015,VALID,19.201,VALID,115.0,VALID,1.404,
2018-09-03, 01:47:07,VALID,919.038,VALID,0.0,VALID,98.853,VALID,-0.008,VALID,19.203,VALID,108.0,VALID,1.385,
2018-09-03, 01:48:07,VALID,919.023,VALID,0.0,VALID,98.857,VALID,-0.014,VALID,19.2,VALID,107.0,VALID,1.008,
2018-09-03, 01:49:07,VALID,919.008,VALID,0.0,VALID,98.856,VALID,-0.01,VALID,19.195,VALID,106.0,VALID,1.288,
2018-09-03, 01:50:07,VALID,918.994,VALID,0.0,VALID,98.86,VALID,-0.005,VALID,19.18,VALID,107.0,VALID,1.419,
2018-09-03, 01:51:07,VALID,918.995,VALID,0.0,VALID,98.874,VALID,-0.002,VALID,19.178,VALID,110.0,VALID,1.446,
2018-09-03, 01:52:07,VALID,918.986,VALID,0.0,VALID,98.878,VALID,0.01,VALID,19.169,VALID,111.0,VALID,1.705,
2018-09-03, 01:53:07,VALID,918.982,VALID,0.0,VALID,98.895,VALID,0.015,VALID,19.173,VALID,117.0,VALID,1.788,
2018-09-03, 01:54:07,VALID,918.946,VALID,0.0,VALID,98.904,VALID,0.009,VALID,19.171,VALID,120.0,VALID,1.55,
2018-09-03, 01:55:07,VALID,918.921,VALID,0.0,VALID,98.936,VALID,-0.007,VALID,19.188,VALID,121.0,VALID,1.622,
2018-09-03, 01:56:07,VALID,918.896,VALID,0.0,VALID,98.931,VALID,0.001,VALID,19.184,VALID,123.0,VALID,1.675,
2018-09-03, 01:57:07,VALID,918.855,VALID,0.0,VALID,98.912,VALID,0.01,VALID,19.164,VALID,116.0,VALID,1.811,
2018-09-03, 01:58:07,VALID,918.835,VALID,0.0,VALID,98.923,VALID,0.016,VALID,19.15,VALID,115.0,VALID,1.686,
2018-09-03, 01:59:07,VALID,918.814,VALID,0.0,VALID,98.92,VALID,0.013,VALID,19.113,VALID,110.0,VALID,1.391,
2018-09-03, 02:00:07,VALID,918.8,VALID,0.0,VALID,98.915,VALID,0.003,VALID,19.082,VALID,117.0,VALID,1.331,
2018-09-03, 02:01:07,VALID,918.795,VALID,0.0,VALID,98.925,VALID,0.007,VALID,19.086,VALID,106.0,VALID,1.28,
2018-09-03, 02:02:07,VALID,918.773,VALID,0.0,VALID,98.908,VALID,0.013,VALID,19.057,VALID,104.0,VALID,1.321,
2018-09-03, 02:03:07,VALID,918.744,VALID,0.0,VALID,98.93,VALID,0.012,VALID,19.048,VALID,96.0,VALID,1.252,
2018-09-03, 02:04:07,VALID,918.705,VALID,0.0,VALID,98.945,VALID,-0.008,VALID,19.046,VALID,102.0,VALID,1.329,
2018-09-03, 02:05:07,VALID,918.697,VALID,0.0,VALID,98.917,VALID,0.024,VALID,19.03,VALID,100.0,VALID,1.234,
2018-09-03, 02:06:07,VALID,918.688,VALID,0.0,VALID,98.947,VALID,0.021,VALID,19.024,VALID,105.0,VALID,0.967,
2018-09-03, 02:07:07,VALID,918.672,VALID,0.0,VALID,98.953,VALID,0.007,VALID,19.018,VALID,105.0,VALID,1.001,
2018-09-03, 02:08:07,VALID,918.674,VALID,0.0,VALID,98.937,VALID,0.005,VALID,19.027,VALID,109.0,VALID,1.334,
2018-09-03, 02:09:07,VALID,918.663,VALID,0.0,VALID,98.976,VALID,0.011,VALID,19.059,VALID,115.0,VALID,1.685,
2018-09-03, 02:10:07,VALID,918.654,VALID,0.0,VALID,98.992,VALID,-0.003,VALID,19.065,VALID,111.0,VALID,1.49,
2018-09-03, 02:11:07,VALID,918.643,VALID,0.0,VALID,98.983,VALID,0.021,VALID,19.07,VALID,113.0,VALID,1.577,
2018-09-03, 02:12:07,VALID,918.617,VALID,0.0,VALID,98.974,VALID,0.014,VALID,19.085,VALID,117.0,VALID,1.795,
2018-09-03, 02:13:07,VALID,918.604,VALID,0.0,VALID,99.026,VALID,0.002,VALID,19.124,VALID,122.0,VALID,1.794,
2018-09-03, 02:14:07,VALID,918.601,VALID,0.0,VALID,99.004,VALID,-0.005,VALID,19.148,VALID,115.0,VALID,1.769,
2018-09-03, 02:15:07,VALID,918.569,VALID,0.0,VALID,99.015,VALID,0.016,VALID,19.149,VALID,117.0,VALID,1.648,
2018-09-03, 02:16:07,VALID,918.543,VALID,0.0,VALID,99.013,VALID,0.004,VALID,19.14,VALID,106.0,VALID,1.559,
2018-09-03, 02:17:07,VALID,918.539,VALID,0.0,VALID,99.007,VALID,0.005,VALID,19.109,VALID,105.0,VALID,1.17,
2018-09-03, 02:18:07,VALID,918.523,VALID,0.0,VALID,98.984,VALID,0.004,VALID,19.088,VALID,106.0,VALID,1.535,
2018-09-03, 02:19:07,VALID,918.528,VALID,0.0,VALID,98.985,VALID,0.002,VALID,19.064,VALID,109.0,VALID,1.612,
2018-09-03, 02:20:07,VALID,918.546,VALID,0.0,VALID,99.002,VALID,0.007,VALID,19.08,VALID,110.0,VALID,1.752,
2018-09-03, 02:21:07,VALID,918.539,VALID,0.0,VALID,99.026,VALID,0.006,VALID,19.11,VALID,115.0,VALID,2.034,
2018-09-03, 02:22:07,VALID,918.558,VALID,0.0,VALID,99.029,VALID,0.004,VALID,19.11,VALID,116.0,VALID,1.907,
2018-09-03, 02:23:07,VALID,918.537,VALID,0.0,VALID,99.038,VALID,-0.013,VALID,19.131,VALID,114.0,VALID,1.919,
2018-09-03, 02:24:07,VALID,918.521,VALID,0.0,VALID,99.041,VALID,-0.013,VALID,19.135,VALID,117.0,VALID,2.215,
2018-09-03, 02:25:07,VALID,918.494,VALID,0.0,VALID,99.032,VALID,-0.022,VALID,19.131,VALID,117.0,VALID,1.757,
2018-09-03, 02:26:07,VALID,918.473,VALID,0.0,VALID,99.016,VALID,-0.028,VALID,19.093,VALID,116.0,VALID,1.579,
2018-09-03, 02:27:07,VALID,918.446,VALID,0.0,VALID,99.007,VALID,-0.019,VALID,19.07,VALID,110.0,VALID,1.48,
2018-09-03, 02:28:07,VALID,918.43,VALID,0.0,VALID,98.995,VALID,-0.007,VALID,19.036,VALID,108.0,VALID,1.487,
2018-09-03, 02:29:07,VALID,918.392,VALID,0.0,VALID,98.986,VALID,-0.004,VALID,18.979,VALID,102.0,VALID,1.206,
2018-09-03, 02:30:06,VALID,918.383,VALID,0.0,VALID,98.983,VALID,-0.0,VALID,18.945,VALID,105.0,VALID,0.988,
2018-09-03, 02:31:06,VALID,918.385,VALID,0.0,VALID,98.949,VALID,-0.013,VALID,18.904,VALID,114.0,VALID,1.298,
2018-09-03, 02:32:06,VALID,918.366,VALID,0.0,VALID,98.996,VALID,-0.018,VALID,18.91,VALID,123.0,VALID,1.102,
2018-09-03, 02:33:06,VALID,918.341,VALID,0.0,VALID,98.985,VALID,-0.006,VALID,18.91,VALID,120.0,VALID,0.989,
2018-09-03, 02:34:06,VALID,918.324,VALID,0.0,VALID,99.003,VALID,-0.007,VALID,18.916,VALID,118.0,VALID,0.865,
2018-09-03, 02:35:06,VALID,918.304,VALID,0.0,VALID,98.99,VALID,-0.004,VALID,18.923,VALID,115.0,VALID,1.007,
2018-09-03, 02:36:06,VALID,918.295,VALID,0.0,VALID,98.953,VALID,0.006,VALID,18.908,VALID,115.0,VALID,0.874,
2018-09-03, 02:37:06,VALID,918.312,VALID,0.0,VALID,98.963,VALID,0.002,VALID,18.923,VALID,98.0,VALID,0.618,
2018-09-03, 02:38:06,VALID,918.28,VALID,0.0,VALID,98.909,VALID,0.001,VALID,18.895,VALID,100.0,VALID,0.416,
2018-09-03, 02:39:06,VALID,918.279,VALID,0.0,VALID,98.869,VALID,0.009,VALID,18.853,VALID,113.0,VALID,0.705,
2018-09-03, 02:40:06,VALID,918.257,VALID,0.0,VALID,98.834,VALID,0.022,VALID,18.81,VALID,111.0,VALID,0.788,
2018-09-03, 02:41:06,VALID,918.249,VALID,0.0,VALID,98.825,VALID,-0.006,VALID,18.794,VALID,107.0,VALID,0.795,
2018-09-03, 02:42:06,VALID,918.2,VALID,0.0,VALID,98.811,VALID,-0.003,VALID,18.8,VALID,108.0,VALID,0.86,
2018-09-03, 02:43:06,VALID,918.186,VALID,0.0,VALID,98.787,VALID,-0.011,VALID,18.802,VALID,112.0,VALID,0.813,
2018-09-03, 02:44:06,VALID,918.17,VALID,0.0,VALID,98.792,VALID,-0.008,VALID,18.813,VALID,124.0,VALID,0.936,
2018-09-03, 02:45:06,VALID,918.161,VALID,0.0,VALID,98.807,VALID,0.013,VALID,18.858,VALID,131.0,VALID,0.796,
2018-09-03, 02:46:06,VALID,918.143,VALID,0.0,VALID,98.851,VALID,-0.006,VALID,18.896,VALID,126.0,VALID,0.514,
2018-09-03, 02:47:06,VALID,918.132,VALID,0.0,VALID,98.819,VALID,-0.005,VALID,18.903,VALID,129.0,VALID,0.696,
2018-09-03, 02:48:06,VALID,918.143,VALID,0.0,VALID,98.841,VALID,0.004,VALID,18.921,VALID,135.0,VALID,0.245,
2018-09-03, 02:49:06,VALID,918.147,VALID,0.0,VALID,98.831,VALID,-0.007,VALID,18.914,VALID,144.0,VALID,0.087,
2018-09-03, 02:50:06,VALID,918.134,VALID,0.0,VALID,98.812,VALID,-0.005,VALID,18.906,VALID,130.0,VALID,0.191,
2018-09-03, 02:51:06,VALID,918.136,VALID,0.0,VALID,98.784,VALID,-0.001,VALID,18.91,VALID,156.0,VALID,0.034,
2018-09-03, 02:52:06,VALID,918.102,VALID,0.0,VALID,98.77,VALID,0.009,VALID,18.897,VALID,158.0,VALID,0.0,
2018-09-03, 02:53:06,VALID,918.089,VALID,0.0,VALID,98.76,VALID,-0.016,VALID,18.889,VALID,158.0,VALID,0.0,
2018-09-03, 02:54:06,VALID,918.089,VALID,0.0,VALID,98.723,VALID,-0.025,VALID,18.883,VALID,158.0,VALID,0.0,
2018-09-03, 02:55:06,VALID,918.068,VALID,0.0,VALID,98.648,VALID,-0.002,VALID,18.826,VALID,158.0,VALID,0.0,
2018-09-03, 02:56:06,VALID,918.066,VALID,0.0,VALID,98.555,VALID,-0.008,VALID,18.746,VALID,158.0,VALID,0.0,
2018-09-03, 02:57:06,VALID,918.05,VALID,0.0,VALID,98.513,VALID,-0.007,VALID,18.709,VALID,158.0,VALID,0.005,
2018-09-03, 02:58:06,VALID,918.025,VALID,0.0,VALID,98.571,VALID,0.01,VALID,18.719,VALID,138.0,VALID,0.061,
2018-09-03, 02:59:06,VALID,918.033,VALID,0.0,VALID,98.472,VALID,0.007,VALID,18.657,VALID,72.0,VALID,0.297,
2018-09-03, 03:00:06,VALID,918.022,VALID,0.0,VALID,98.383,VALID,-0.002,VALID,18.581,VALID,57.0,VALID,0.605,
2018-09-03, 03:01:06,VALID,918.023,VALID,0.0,VALID,98.297,VALID,-0.005,VALID,18.508,VALID,53.0,VALID,0.843,
2018-09-03, 03:02:06,VALID,918.005,VALID,0.0,VALID,98.396,VALID,-0.022,VALID,18.513,VALID,64.0,VALID,0.829,
2018-09-03, 03:03:06,VALID,918.003,VALID,0.0,VALID,98.41,VALID,-0.016,VALID,18.516,VALID,55.0,VALID,0.673,
2018-09-03, 03:04:06,VALID,918.006,VALID,0.0,VALID,98.374,VALID,-0.015,VALID,18.509,VALID,56.0,VALID,0.634,
2018-09-03, 03:05:06,VALID,917.999,VALID,0.0,VALID,98.355,VALID,-0.02,VALID,18.515,VALID,63.0,VALID,0.621,
2018-09-03, 03:06:06,VALID,918.001,VALID,0.0,VALID,98.3,VALID,-0.025,VALID,18.501,VALID,64.0,VALID,0.641,
2018-09-03, 03:07:06,VALID,917.976,VALID,0.0,VALID,98.291,VALID,0.001,VALID,18.499,VALID,67.0,VALID,0.789,
2018-09-03, 03:08:06,VALID,917.979,VALID,0.0,VALID,98.192,VALID,0.017,VALID,18.468,VALID,44.0,VALID,0.968,
2018-09-03, 03:09:06,VALID,917.968,VALID,0.0,VALID,98.13,VALID,0.014,VALID,18.44,VALID,44.0,VALID,1.286,
2018-09-03, 03:10:06,VALID,917.969,VALID,0.0,VALID,98.049,VALID,0.015,VALID,18.428,VALID,44.0,VALID,0.95,
2018-09-03, 03:11:06,VALID,917.965,VALID,0.0,VALID,97.959,VALID,0.012,VALID,18.404,VALID,44.0,VALID,0.934,
2018-09-03, 03:12:06,VALID,917.945,VALID,0.0,VALID,97.929,VALID,0.01,VALID,18.392,VALID,44.0,VALID,0.991,
2018-09-03, 03:13:06,VALID,917.95,VALID,0.0,VALID,97.724,VALID,0.022,VALID,18.324,VALID,46.0,VALID,0.821,
2018-09-03, 03:14:06,VALID,917.925,VALID,0.0,VALID,97.647,VALID,0.017,VALID,18.3,VALID,45.0,VALID,0.917,
2018-09-03, 03:15:06,VALID,917.92,VALID,0.0,VALID,97.934,VALID,0.028,VALID,18.365,VALID,45.0,VALID,0.815,
2018-09-03, 03:16:06,VALID,917.913,VALID,0.0,VALID,98.025,VALID,-0.0,VALID,18.387,VALID,46.0,VALID,0.846,
2018-09-03, 03:17:06,VALID,917.92,VALID,0.0,VALID,98.027,VALID,0.01,VALID,18.384,VALID,45.0,VALID,0.746,
2018-09-03, 03:18:06,VALID,917.922,VALID,0.0,VALID,98.078,VALID,0.015,VALID,18.386,VALID,44.0,VALID,0.749,
2018-09-03, 03:19:06,VALID,917.923,VALID,0.0,VALID,98.075,VALID,0.013,VALID,18.384,VALID,44.0,VALID,0.945,
2018-09-03, 03:20:06,VALID,917.894,VALID,0.0,VALID,98.14,VALID,0.018,VALID,18.404,VALID,44.0,VALID,1.087,
2018-09-03, 03:21:06,VALID,917.884,VALID,0.0,VALID,98.143,VALID,0.016,VALID,18.396,VALID,44.0,VALID,1.214,
2018-09-03, 03:22:06,VALID,917.853,VALID,0.0,VALID,98.114,VALID,0.013,VALID,18.411,VALID,45.0,VALID,1.173,
2018-09-03, 03:23:06,VALID,917.834,VALID,0.0,VALID,98.114,VALID,0.004,VALID,18.42,VALID,45.0,VALID,1.261,
2018-09-03, 03:24:06,VALID,917.813,VALID,0.0,VALID,98.169,VALID,0.01,VALID,18.459,VALID,62.0,VALID,1.097,
2018-09-03, 03:25:06,VALID,917.793,VALID,0.0,VALID,98.126,VALID,0.027,VALID,18.447,VALID,76.0,VALID,1.092,
2018-09-03, 03:26:06,VALID,917.77,VALID,0.0,VALID,98.235,VALID,0.032,VALID,18.476,VALID,80.0,VALID,1.091,
2018-09-03, 03:27:06,VALID,917.774,VALID,0.0,VALID,98.231,VALID,0.039,VALID,18.461,VALID,88.0,VALID,0.991,
2018-09-03, 03:28:06,VALID,917.758,VALID,0.0,VALID,98.197,VALID,0.024,VALID,18.396,VALID,102.0,VALID,0.929,
2018-09-03, 03:29:06,VALID,917.73,VALID,0.0,VALID,98.14,VALID,0.039,VALID,18.319,VALID,111.0,VALID,1.243,
2018-09-03, 03:30:06,VALID,917.728,VALID,0.0,VALID,98.24,VALID,0.033,VALID,18.321,VALID,103.0,VALID,1.021,
2018-09-03, 03:31:06,VALID,917.701,VALID,0.0,VALID,98.317,VALID,0.05,VALID,18.322,VALID,98.0,VALID,0.81,
2018-09-03, 03:32:06,VALID,917.667,VALID,0.0,VALID,98.453,VALID,0.009,VALID,18.363,VALID,97.0,VALID,0.789,
2018-09-03, 03:33:06,VALID,917.687,VALID,0.0,VALID,98.459,VALID,0.016,VALID,18.344,VALID,94.0,VALID,0.795,
2018-09-03, 03:34:06,VALID,917.692,VALID,0.0,VALID,98.441,VALID,0.022,VALID,18.292,VALID,104.0,VALID,0.843,
2018-09-03, 03:35:06,VALID,917.677,VALID,0.0,VALID,98.536,VALID,0.036,VALID,18.314,VALID,109.0,VALID,0.805,
2018-09-03, 03:36:06,VALID,917.711,VALID,0.0,VALID,98.599,VALID,0.041,VALID,18.358,VALID,112.0,VALID,0.919,
2018-09-03, 03:37:06,VALID,917.734,VALID,0.0,VALID,98.691,VALID,0.004,VALID,18.41,VALID,119.0,VALID,0.741,
2018-09-03, 03:38:06,VALID,917.742,VALID,0.0,VALID,98.701,VALID,-0.003,VALID,18.422,VALID,118.0,VALID,0.632,
2018-09-03, 03:39:06,VALID,917.773,VALID,0.0,VALID,98.734,VALID,-0.014,VALID,18.437,VALID,112.0,VALID,0.609,
2018-09-03, 03:40:06,VALID,917.795,VALID,0.0,VALID,98.763,VALID,-0.014,VALID,18.446,VALID,108.0,VALID,0.554,